Flag for U.S.A. Weather past 2 weeks in Fullerton, California, U.S.A.

Now
73 °F

Sunny.


Feels Like: 75 °F
Forecast: 67 / 83 °F
Wind: 5 mph from South

Location: Fullerton Municipal Airport

Current Time: Aug 31, 2015 at 9:27:57 PM

Latest Report: Aug 31, 2015 at 7:53 PM


Visibility: 10 mi

Pressure: 29.84 "Hg

Humidity: 74%

Dew point: 64 °F

Location of FullertonLocation

Historic Weather in Fullerton — Graph

°F

Fullerton temperature yesterday

Maximum temperature yesterday: 87 °F (at 1:53 PM)
Minimum temperature yesterday: 72 °F (at 11:53 PM)
Average temperature yesterday: 78 °F

Past Weeks' High & Low Weather Summary

 TemperatureHumidityPressure
High98 °F (Aug 28, 1:53 PM)88% (Aug 30, 5:02 AM)29.97 "Hg (Aug 30, 5:02 AM)
Low67 °F (Aug 23, 4:53 AM)22% (Aug 28, 1:53 PM)29.78 "Hg (Aug 16, 7:53 PM)
Average78 °F65%29.88 "Hg
* Reported Aug 16 7:53 PM — Aug 31 7:53 PM, Fullerton, Weather by CustomWeather, © 2015

Note: Actual official high and low records may vary slightly from our data, if they occured in-between our weather recording intervals... More about our weather records

Advertising

Fullerton weather history for previous 24 hours

 ConditionsComfort  
Time TempWeatherWind HumidityBarometerVisibility
7:53 PM
Mon, Aug 31
73 °FSunny.5 mph74%29.84 "Hg10 mi
6:53 PM75 °FSunny.7 mph64%29.83 "Hg10 mi
5:53 PM77 °FSunny.9 mph60%29.83 "Hg10 mi
4:53 PM79 °FSunny.9 mph54%29.84 "Hg10 mi
3:53 PM80 °FSunny.6 mph52%29.84 "Hg10 mi
2:53 PM80 °FSunny.7 mph54%29.86 "Hg10 mi
1:53 PM81 °FSunny.9 mph53%29.87 "Hg10 mi
12:53 PM83 °FSunny.10 mph50%29.88 "Hg10 mi
11:53 AM80 °FSunny.7 mph52%29.89 "Hg10 mi
10:53 AM77 °FPassing clouds.7 mph62%29.91 "Hg10 mi
9:53 AM75 °FPartly sunny.No wind66%29.90 "Hg10 mi
8:53 AM72 °FOvercast.No wind76%29.89 "Hg10 mi
7:53 AM72 °FOvercast.5 mph76%29.88 "Hg10 mi
6:53 AM71 °FOvercast.3 mph78%29.86 "Hg10 mi
5:53 AM71 °FOvercast.6 mph81%29.85 "Hg10 mi
4:53 AM72 °FOvercast.3 mph78%29.84 "Hg10 mi
3:53 AM72 °FOvercast.6 mph81%29.83 "Hg10 mi
2:53 AM70 °FOvercast.3 mph84%29.83 "Hg10 mi
1:53 AM71 °FPassing clouds.3 mph84%29.83 "Hg9 mi
1:03 AM71 °FPassing clouds.3 mph84%29.84 "Hg9 mi
12:53 AM72 °FPassing clouds.3 mph81%29.84 "Hg10 mi
11:53 PM
Sun, Aug 30
72 °FPassing clouds.3 mph81%29.84 "Hg10 mi
10:53 PM73 °FClear.5 mph79%29.84 "Hg10 mi
9:53 PM73 °FClear.5 mph79%29.83 "Hg10 mi
Weather by CustomWeather, © 2015

See weather overviewHow to use our weather pages